Simultaneous Nadir Overpasses (SNOs) Predictions

Prediction of SNOs between LANDSAT-8 and NOAA-19 Satellite Orbit:

Table of predicted SNOs for the next 14.0 days since TLE Epoch: 5/16/2014
Index Date (LANDSAT-8) Time (LANDSAT-8) Lat,Lon (LANDSAT-8) SZA (LANDSAT-8 ) Date (NOAA-19) Time (NOAA-19) Lat,Lon (NOAA-19) SZA (NOAA-19 ) Distance(km) Time Diff (sec)
1 05/17/2014 14:03:47 71.94, -32.04 52.45 05/17/2014 14:03:31 71.93, -32.03 52.44 0.62 16
2 05/17/2014 14:53:17 -71.82, 135.39 127.69 05/17/2014 14:54:25 -71.80, 135.48 127.70 3.57 68
3 05/19/2014 18:48:02 71.96,-103.07 51.99 05/19/2014 18:47:24 71.95,-103.02 51.99 2.00 38
4 05/19/2014 19:37:31 -71.90, 64.46 128.08 05/19/2014 19:38:19 -71.89, 64.37 128.09 3.17 48
5 05/21/2014 23:32:17 71.98,-174.12 51.56 05/21/2014 23:31:17 71.99,-174.03 51.57 3.25 60
6 05/22/2014 00:21:46 -71.92, -6.59 128.51 05/22/2014 00:22:11 -71.89, -6.57 128.54 3.13 25
7 05/24/2014 04:16:27 72.25, 115.29 51.41 05/24/2014 04:15:16 72.33, 114.35 51.50 33.18 71
8 05/24/2014 05:06:01 -71.92, -77.66 128.93 05/24/2014 05:06:04 -71.94, -77.61 128.91 2.81 3
9 05/26/2014 09:50:15 -71.97,-148.65 129.28 05/26/2014 09:49:56 -71.95,-148.57 129.29 3.30 19
10 05/26/2014 10:39:46 71.65, 18.45 50.40 05/26/2014 10:40:57 71.59, 19.33 50.34 31.52 71
11 05/28/2014 14:34:29 -72.00, 140.34 129.61 05/28/2014 14:33:49 -72.01, 140.36 129.59 1.92 40
12 05/28/2014 15:23:56 71.90, -52.20 50.29 05/28/2014 15:24:55 71.90, -52.21 50.29 0.82 59
